Location: Babice
(50.3480°N, 22.9363°E)
Time: 12:28:25
(UTC+00:00)

Cosmos 1140 Rocket - Pass Details

Date: 14 July 2020
Orbit: 744 x 768 km, 74.1° (Epoch: 08 August)

Event Time Altitude Azimuth Distance (km) Brightness Sun altitude
Exits shadow 00:52:13 16° 212° (SSW) 1,883 4.9 -11.8°
Maximum altitude 00:56:20 74° 295° (WNW) 799 3.6 -11.5°
Drops below altitude 10° 01:01:36 10° 21° (NNE) 2,316 7.4 -11.0°
Sets 01:04:00 0° 24° (NNE) 3,248 8.7 -10.8°
